GFSSW_250_spd_276.txt.gz
Wind_Speed
37 37 37 37 36 36 37 36 36 34 35 35 33 34 33 33 32 31 32 30 28 28 28 28 27 26 26 26 25 24 24 26 26 24 23 29 30 18 23 29 32 36 31 35 35
40 40 40 39 39 38 37 34 34 33 35 32 32 32 31 32 31 32 31 30 27 27 28 27 27 26 27 26 24 22 23 24 21 22 20 31 23 26 32 31 32 34 32 34 36
42 42 42 41 38 37 35 33 33 33 33 31 32 31 30 30 31 30 29 29 27 27 27 26 26 25 26 25 23 22 21 22 23 23 22 24 17 23 30 19 13 32 27 31 33
40 40 39 36 36 34 33 32 32 32 33 32 31 30 30 29 29 28 27 28 26 26 26 25 25 25 26 23 21 19 19 19 19 20 21 25 24 32 32 9 10 9 43 34 30
42 41 39 38 36 34 34 33 33 34 35 34 31 31 30 29 28 26 26 27 26 25 25 26 25 26 25 21 21 19 17 17 16 16 17 18 16 23 23 21 20 37 46 50 40
42 41 41 40 39 38 38 38 38 37 36 34 33 31 30 26 25 26 26 26 25 25 25 26 26 26 25 22 21 18 16 16 15 13 13 12 15 18 18 11 37 31 38 41 31
42 42 43 41 42 42 40 40 40 37 36 35 34 32 28 26 25 26 27 26 26 25 26 26 27 26 26 24 22 19 17 18 16 15 14 12 12 16 23 25 28 24 24 25 20
45 44 44 43 43 42 42 41 40 39 37 33 32 36 33 32 28 26 26 25 25 25 27 27 28 28 26 24 23 21 19 19 19 18 17 16 16 15 15 17 18 21 19 18 19
47 47 46 45 43 43 42 37 37 37 36 36 30 29 33 31 30 28 26 25 24 25 27 27 28 28 27 26 23 22 21 21 21 20 19 18 20 19 19 19 20 17 17 18 16
49 49 49 46 45 45 44 41 37 38 37 37 34 32 30 29 32 30 28 26 26 27 28 29 29 30 30 29 26 24 24 23 23 24 22 20 20 20 21 22 20 18 14 12 15
55 53 52 50 48 46 45 44 40 41 40 39 36 31 36 31 33 33 29 29 28 28 28 29 30 32 32 30 29 30 26 25 25 24 26 24 21 21 21 21 16 14 12 15 11
60 59 58 56 53 50 46 46 46 44 41 39 37 37 36 37 35 35 33 32 30 28 28 29 32 32 32 32 32 32 29 28 27 26 29 26 28 24 21 19 16 17 16 16 11
65 63 61 60 57 55 51 49 46 46 47 43 45 42 41 38 38 39 37 35 33 30 31 33 34 32 33 36 34 33 32 31 30 29 30 30 27 28 27 23 21 21 22 20 13
70 68 67 66 63 59 57 54 50 50 49 53 45 44 40 43 42 42 41 39 37 35 34 34 34 33 36 36 36 36 35 33 34 33 31 33 30 31 28 26 27 24 28 28 28
67 70 73 72 69 67 65 60 57 54 50 50 50 49 45 42 49 45 45 42 43 40 36 37 35 34 36 38 37 38 36 35 36 32 33 34 34 35 31 30 31 31 34 34 38
68 68 68 71 73 74 71 68 64 59 53 49 55 57 51 48 49 51 49 47 44 42 41 40 37 35 38 39 39 39 37 36 34 34 33 35 37 38 34 32 29 35 41 41 44
70 69 69 69 68 72 75 76 72 62 64 59 58 61 60 55 52 51 53 51 49 44 45 46 42 40 40 39 38 39 38 37 35 34 34 39 40 42 39 37 37 40 45 48 49
75 74 72 72 70 71 70 71 73 71 74 69 63 65 61 63 59 52 54 52 52 49 48 47 45 44 44 41 40 40 39 39 38 39 41 39 42 45 40 43 40 44 47 48 51
67 73 79 76 73 73 71 66 64 72 79 76 69 68 67 65 66 62 54 57 56 55 51 49 49 50 45 46 43 43 42 45 41 41 43 46 48 46 44 45 49 47 49 51 52
52 64 71 79 82 79 73 65 67 71 76 76 76 76 75 72 68 67 65 60 59 58 58 55 51 51 50 49 46 45 49 48 45 45 47 50 50 49 47 45 49 51 53 54 57
51 50 56 65 79 85 79 77 76 76 73 75 75 79 80 78 73 71 66 67 63 63 63 61 55 53 51 50 54 50 49 48 49 47 49 50 58 51 50 48 50 52 54 60 61
57 57 53 56 66 74 81 86 85 82 80 74 73 75 80 82 80 75 71 68 70 66 64 66 59 56 54 52 56 54 52 53 51 52 51 52 59 56 54 54 52 57 57 59 66
55 62 63 62 59 66 75 82 87 89 87 82 74 78 80 81 82 79 77 75 74 72 70 67 60 60 59 55 56 57 57 55 52 52 52 53 53 61 55 59 59 62 63 61 69
67 62 69 64 65 64 70 77 82 88 92 91 85 83 82 79 78 82 81 79 80 75 76 75 67 58 58 59 60 60 59 56 55 54 55 55 57 58 55 57 58 62 64 64 65
61 66 72 72 73 71 70 72 79 84 90 97 94 88 83 84 80 77 80 81 85 82 78 78 72 69 63 62 61 59 59 60 59 58 58 59 61 59 58 57 53 35 53 58 74
73 70 76 82 83 77 76 75 78 82 91 95 99 94 92 86 82 79 78 81 86 85 80 82 74 76 73 72 69 66 63 59 60 62 61 61 65 61 61 58 60 63 75 71 67
78 77 76 74 80 84 82 79 80 82 88 94 96 101 99 86 86 84 81 85 86 85 79 83 78 78 71 74 75 74 69 69 65 61 63 65 67 62 64 63 66 70 73 66 63

GFSSW_250_spd_279.txt.gz
Wind_Speed
35 34 33 33 32 32 32 33 33 33 33 33 32 32 32 33 34 33 32 31 30 31 28 28 28 25 24 24 24 24 26 23 20 24 23 26 24 24 26 23 24 27 30 29 31
36 37 36 37 37 36 35 36 34 33 33 34 34 33 30 31 32 34 32 33 33 33 31 28 26 25 25 24 23 24 24 22 21 22 20 26 22 22 17 14 25 32 16 20 20
38 39 39 40 39 38 38 39 37 36 34 32 31 32 30 31 31 29 31 33 32 32 31 29 26 25 25 25 24 23 23 23 23 22 23 29 23 26 24 30 22 25 18 22 19
42 42 42 41 41 42 42 41 39 35 33 30 32 32 30 31 29 30 30 32 32 31 30 27 25 24 24 25 22 21 21 22 22 21 28 30 29 28 30 29 28 22 29 15 16
41 43 44 42 41 42 41 39 38 36 33 30 31 32 32 31 30 29 30 30 30 30 28 26 25 24 25 23 21 20 20 20 21 20 23 28 25 32 37 36 30 21 21 22 30
38 40 41 43 42 41 40 39 38 36 34 33 33 34 33 31 29 30 28 30 29 29 27 24 25 24 25 23 22 20 19 19 20 19 20 22 19 20 35 42 26 20 29 32 33
39 40 40 41 40 39 39 39 38 36 37 36 36 34 33 32 30 29 25 28 28 27 25 25 25 25 25 23 22 20 19 19 19 19 18 19 16 12 18 41 36 35 26 30 38
42 41 42 42 42 41 40 39 39 38 38 37 37 36 34 34 30 28 24 26 27 26 25 25 26 27 25 24 23 22 19 19 19 19 18 18 15 10 14 40 34 32 25 28 25
44 44 43 42 43 42 41 40 40 40 39 39 38 37 33 32 32 33 30 27 26 24 24 25 26 28 26 26 25 24 22 21 21 19 20 19 18 17 17 27 32 32 30 25 20
46 47 46 45 45 44 43 41 42 39 39 36 36 37 37 33 29 32 31 29 26 25 26 26 27 28 27 28 29 27 25 25 23 22 19 20 20 21 22 24 27 29 23 20 21
55 54 53 50 50 47 45 43 42 41 39 35 36 38 40 36 36 30 33 32 29 28 26 25 27 30 30 31 30 30 30 28 26 23 22 21 20 20 21 23 26 21 18 20 19
64 62 60 58 55 53 50 46 44 43 41 39 37 41 41 40 32 36 32 33 32 29 26 26 30 29 31 32 32 34 32 30 28 25 25 23 21 20 20 23 24 18 20 22 22
66 65 66 65 61 58 55 54 48 47 44 42 42 43 40 38 37 36 39 34 34 33 31 31 30 29 31 32 34 34 35 33 31 26 25 28 22 22 21 20 19 18 24 25 24
64 63 65 66 66 63 63 58 56 51 47 49 42 45 44 44 43 41 38 37 36 38 35 35 31 31 33 35 35 34 35 34 33 30 29 27 25 24 24 22 18 20 25 22 27
66 64 63 63 68 67 68 64 59 56 50 51 46 49 49 46 48 46 43 38 42 40 37 40 36 34 33 36 35 38 36 35 36 33 29 29 27 28 24 25 21 31 25 23 27
70 68 64 65 64 66 69 68 64 60 56 55 52 52 51 56 51 48 45 43 45 42 40 43 41 37 37 37 37 39 37 36 36 34 30 35 26 30 25 21 24 31 32 26 27
63 69 69 67 66 65 65 68 69 63 68 66 59 59 55 57 59 55 49 45 45 47 46 48 44 44 42 40 38 39 39 37 36 35 37 35 32 32 26 24 29 35 35 37 38
48 60 64 71 71 68 66 64 61 68 77 77 68 63 60 59 61 60 57 52 49 48 54 50 46 45 47 43 45 41 39 38 39 40 39 37 36 32 29 29 29 32 36 39 41
45 43 51 64 68 74 70 64 65 68 73 77 74 68 66 66 65 64 58 58 57 53 53 55 51 53 47 46 46 45 40 47 39 40 39 43 43 35 32 32 33 36 39 41 44
49 50 48 48 57 67 71 70 69 72 75 71 71 74 72 72 73 69 65 61 62 61 56 57 55 56 53 49 47 47 47 47 43 44 44 49 45 42 36 33 37 39 38 43 47
46 51 50 51 51 52 61 68 77 78 77 74 72 71 73 74 77 75 66 65 63 64 64 60 55 59 56 51 49 52 48 51 50 45 47 50 48 44 41 38 36 40 42 44 48
47 49 45 49 57 55 55 57 69 78 83 79 75 73 74 74 75 76 74 70 71 70 64 67 65 60 56 59 56 54 51 52 51 51 51 50 50 46 49 41 39 40 44 49 53
63 62 53 48 52 58 58 57 58 65 75 84 82 78 76 75 76 75 76 76 74 72 70 71 67 66 60 59 58 56 56 57 54 53 52 50 52 52 46 48 44 45 45 49 57
63 68 65 56 50 55 62 57 58 64 65 74 84 88 83 81 81 73 73 75 77 77 77 79 72 65 63 62 64 61 61 61 57 51 53 51 52 53 51 50 50 46 46 48 33
71 75 73 64 61 66 56 67 64 60 66 67 74 85 91 91 88 76 76 74 75 77 83 83 75 70 66 69 69 63 57 59 56 55 54 53 54 54 54 55 53 52 51 39 34
74 73 75 75 76 70 67 61 63 77 73 72 73 83 88 88 90 89 85 81 76 82 81 83 76 76 72 73 74 71 64 57 54 55 55 52 51 49 49 52 56 55 49 51 52
72 78 81 83 86 84 77 70 68 71 74 78 79 78 79 83 95 94 94 88 84 84 86 79 76 78 73 74 79 74 61 67 65 61 61 59 57 57 56 55 56 56 59 62 61

GFSSW_250_spd_285.txt.gz
Wind_Speed
33 32 32 31 33 33 31 30 29 28 27 27 27 29 28 27 27 27 28 29 30 30 30 29 28 30 27 28 29 31 30 23 18 22 24 23 25 28 31 33 26 35 28 31 27
32 34 32 31 31 32 33 33 33 31 31 30 30 31 29 28 29 30 28 30 30 29 30 32 32 30 27 28 29 32 29 21 22 22 23 26 23 24 32 32 29 38 36 40 38
34 34 33 32 33 34 36 38 36 34 33 33 34 33 31 29 30 29 31 29 29 27 29 30 33 32 29 30 29 31 30 23 25 24 26 24 25 28 31 40 38 41 45 49 46
34 36 36 36 36 36 37 37 37 36 35 35 35 36 34 32 33 30 31 30 29 27 28 29 29 30 30 28 29 29 27 24 26 26 24 25 28 34 37 36 37 45 47 51 47
34 36 37 38 38 39 38 39 38 38 38 38 37 39 37 36 35 32 32 32 29 28 29 28 28 28 29 26 30 29 29 28 27 26 25 25 25 33 37 36 39 44 46 42 45
39 37 36 38 38 39 39 38 38 39 40 40 40 41 39 36 35 34 33 33 31 30 29 27 30 27 26 28 28 29 30 27 26 24 25 26 26 28 30 32 38 39 42 38 40
38 37 39 40 40 41 41 41 42 43 41 42 42 40 39 35 38 32 34 34 33 30 29 29 29 27 27 28 28 31 28 27 25 23 23 24 25 26 28 27 28 35 44 40 37
38 36 35 36 37 37 39 41 42 42 42 42 43 40 37 41 38 31 35 34 33 32 30 29 29 28 27 28 30 30 27 23 23 22 21 20 21 24 25 26 26 28 40 46 44
37 39 38 36 36 36 37 37 38 38 38 39 39 39 36 42 38 36 37 34 32 32 30 31 28 29 29 31 31 29 25 27 27 25 21 20 20 21 19 22 24 27 34 50 58
41 39 41 42 40 40 41 41 41 41 41 41 40 40 36 40 39 37 35 36 34 32 31 31 30 31 31 32 30 27 27 28 29 26 25 23 21 20 20 23 23 25 29 34 42
54 55 52 51 49 49 48 45 45 46 43 43 44 42 41 39 42 40 37 38 35 33 31 33 35 31 30 30 27 29 31 32 32 30 25 23 22 20 20 24 26 25 31 41 40
62 60 59 57 57 57 55 52 49 51 49 47 46 43 44 43 43 42 39 38 36 33 30 33 39 27 30 29 28 31 35 36 34 30 28 27 24 22 21 23 27 32 35 42 41
69 69 68 67 65 62 61 59 56 55 56 51 51 47 44 48 46 43 42 39 36 38 37 35 33 33 32 30 30 30 34 34 33 31 30 29 28 26 24 26 26 31 36 41 38
72 73 73 73 73 71 69 66 64 61 63 60 56 55 51 51 50 45 44 42 40 41 39 35 32 38 36 36 34 34 36 34 32 33 32 33 33 29 25 26 29 30 38 40 37
53 60 67 73 75 74 73 71 69 68 67 69 63 61 57 57 52 49 47 44 45 43 41 46 30 38 39 41 34 37 32 32 29 32 33 35 34 29 26 28 29 30 33 38 38
45 47 44 48 54 68 72 72 70 69 70 71 68 67 65 62 57 54 51 48 45 44 44 46 40 41 46 42 38 39 33 34 30 33 34 35 32 30 28 29 30 33 35 35 36
40 41 42 45 43 47 56 63 68 70 71 68 69 72 70 69 64 61 56 53 50 48 51 53 45 43 48 46 45 42 39 37 33 34 36 31 26 28 30 33 29 31 32 33 35
38 41 40 38 40 45 44 47 55 69 72 69 68 71 74 71 71 66 61 58 57 54 56 54 51 51 52 49 48 42 38 38 39 36 36 32 26 29 32 33 32 32 32 33 36
42 39 39 37 37 34 36 40 47 53 64 71 71 70 71 72 73 70 66 64 61 60 58 56 58 56 53 53 48 46 43 46 39 40 39 37 32 32 35 33 34 34 34 36 36
45 42 44 44 39 38 31 31 40 48 50 61 66 69 68 70 71 74 71 69 68 66 63 61 59 63 58 55 50 46 48 48 44 42 39 40 35 35 37 37 35 34 37 39 40
47 49 50 41 39 38 38 38 38 41 42 46 54 62 69 69 68 69 75 75 73 70 67 66 61 67 64 56 55 52 48 49 51 45 43 42 40 38 38 40 38 38 40 43 44
49 51 51 51 49 46 46 45 44 44 37 37 45 51 63 68 69 67 68 74 76 76 72 70 66 71 63 66 65 60 54 49 45 48 51 46 44 43 42 42 41 43 46 48 50
56 55 54 54 55 56 56 50 48 51 49 41 41 44 52 61 68 72 72 72 74 78 76 75 72 69 69 67 63 64 63 58 56 53 46 49 47 53 43 43 43 46 48 52 54
52 51 50 53 55 60 62 57 54 55 56 54 52 46 46 51 59 63 71 74 75 75 76 78 76 73 71 70 74 68 65 65 67 59 53 45 50 54 46 46 47 47 49 52 53
58 62 59 55 58 63 69 65 62 63 62 59 57 54 47 43 51 51 57 66 77 78 77 77 75 76 75 75 79 74 70 67 61 62 60 53 48 52 49 46 45 48 52 53 53
69 67 68 68 70 68 70 70 69 67 68 67 61 58 56 53 50 48 50 57 60 68 77 78 75 76 72 75 81 82 75 70 64 61 58 57 59 59 55 49 47 48 51 53 52
70 70 74 72 75 70 68 68 70 70 71 71 66 63 63 59 58 56 51 57 60 63 68 78 80 79 74 79 78 80 73 76 73 68 65 60 62 59 57 55 53 52 53 52 51

GFSSW_250_spd_291.txt.gz
Wind_Speed
45 44 43 44 44 42 35 35 33 36 34 32 28 25 24 22 21 20 20 21 21 22 23 23 24 26 29 31 30 31 31 26 19 24 28 29 34 34 33 31 32 30 30 30 31
50 45 45 43 39 38 33 34 31 34 35 32 30 29 27 27 25 24 23 23 25 25 25 25 24 26 29 32 32 33 31 25 19 26 29 32 37 33 32 32 31 30 31 34 32
43 40 37 36 31 31 33 34 33 33 35 35 33 32 30 30 28 27 27 24 24 24 25 24 24 25 27 28 30 32 33 26 25 29 30 34 36 33 31 33 31 30 29 34 33
33 31 32 30 30 30 33 34 33 33 36 36 35 34 32 33 31 28 28 25 25 26 26 26 27 26 26 28 28 29 30 30 27 27 29 30 31 31 32 31 31 31 28 32 30
33 31 29 28 31 32 32 33 33 34 36 38 38 37 35 34 36 31 30 28 28 29 28 29 29 28 27 30 30 29 29 31 29 26 27 28 27 29 33 33 32 30 27 26 29
31 31 31 27 29 30 32 32 34 35 37 38 38 37 36 37 38 34 33 31 31 31 31 32 32 32 29 31 30 29 29 29 26 24 25 28 28 28 30 31 33 31 26 25 25
32 31 33 32 33 34 31 34 35 36 35 37 38 37 34 39 38 35 35 33 34 33 33 34 33 31 31 31 31 30 28 25 22 22 26 28 29 29 31 31 31 32 31 31 28
31 30 31 32 32 36 36 38 37 39 39 39 41 40 36 41 36 36 36 37 36 34 34 35 35 34 33 32 31 30 28 23 19 24 28 28 26 27 27 30 32 32 32 32 31
38 35 34 36 37 37 38 41 42 42 42 42 43 41 39 42 39 39 38 39 37 35 35 37 37 36 34 32 29 29 28 25 23 25 27 27 27 27 26 28 31 32 32 29 29
41 40 38 38 36 37 42 43 42 41 41 42 43 42 43 43 43 41 38 37 36 36 36 36 37 35 35 30 30 29 29 27 26 25 28 28 27 27 27 27 28 29 31 29 29
44 44 43 41 41 40 40 43 43 40 39 37 38 37 37 37 37 35 33 33 34 34 33 36 37 35 32 30 31 30 29 29 26 26 28 29 29 28 26 27 28 28 28 29 27
46 44 46 47 45 45 44 45 44 45 45 40 38 37 39 38 38 37 35 35 35 34 35 36 38 34 32 31 33 31 29 29 28 27 29 31 29 29 28 27 28 27 28 31 31
47 49 50 50 51 52 52 52 51 53 52 46 46 45 47 46 42 41 39 39 39 37 38 39 39 36 34 34 33 32 32 27 25 29 30 30 30 30 31 30 29 29 29 30 32
49 50 51 53 54 56 58 59 59 60 61 59 56 57 53 54 50 51 47 45 44 43 41 43 42 39 37 34 34 35 31 29 29 30 29 30 32 33 33 32 32 31 32 33 34
50 51 53 54 56 57 57 58 59 61 62 63 65 64 62 61 59 58 58 54 53 51 47 47 44 42 40 37 36 38 33 33 33 31 32 32 34 35 34 34 35 35 33 34 36
40 44 45 47 50 54 56 57 58 61 64 65 66 67 67 65 65 64 64 63 62 58 56 54 50 47 45 42 41 39 37 34 33 34 34 32 33 36 33 35 35 34 34 35 36
37 41 41 40 44 46 46 45 49 53 54 56 60 64 68 69 68 69 68 69 68 66 63 59 57 54 48 46 44 44 39 38 33 33 37 33 32 38 35 34 35 33 35 36 36
38 39 39 38 41 41 39 40 44 47 48 50 52 55 57 60 67 70 71 71 72 70 68 65 64 60 55 52 48 45 42 39 41 36 35 34 35 36 37 37 37 35 35 35 35
34 36 41 39 40 41 39 38 41 42 43 43 44 49 52 53 57 61 70 72 72 72 72 70 70 65 62 58 53 51 47 43 40 39 36 38 39 41 41 39 41 39 36 37 38
34 32 36 36 34 33 35 38 44 45 45 44 41 41 44 49 51 55 58 67 72 72 71 70 70 69 66 64 60 57 53 49 46 46 40 37 40 46 46 42 42 42 40 40 41
37 34 35 34 35 34 33 36 39 47 47 45 43 35 33 35 43 47 47 53 62 70 71 69 68 70 69 67 68 62 57 54 52 48 49 44 42 48 49 48 46 46 44 43 43
48 43 41 40 40 38 38 39 38 39 45 45 43 37 37 36 38 36 34 43 46 60 68 70 66 67 69 70 71 67 63 60 56 52 50 51 48 54 56 52 50 48 47 46 46
54 51 50 50 46 47 47 44 45 45 45 44 45 44 40 39 37 39 36 37 35 46 55 65 69 66 70 72 69 69 67 65 62 58 52 49 48 60 60 58 55 52 51 50 50
57 53 55 56 55 53 51 49 48 51 52 47 51 49 48 45 42 38 41 42 41 42 44 53 64 69 71 73 72 69 69 68 67 63 60 53 54 58 62 59 57 53 52 52 50
64 62 62 59 59 60 57 55 59 59 56 56 51 50 50 51 55 55 53 51 48 47 48 46 51 64 68 74 73 72 68 68 67 67 62 63 58 61 63 65 64 60 58 57 55
71 71 71 70 67 64 64 62 60 57 60 60 60 60 56 55 58 58 57 56 56 50 52 49 46 50 53 66 74 73 69 70 69 71 66 65 61 69 69 68 67 65 63 62 60
78 75 76 72 70 69 68 67 66 64 62 55 57 60 58 60 62 65 62 58 55 56 56 57 54 49 48 54 60 65 73 73 73 70 68 66 66 69 69 71 72 68 66 65 63